This demonstration page uses our WeatherBlox Daily Observations layout. Learn more.

Left ArrowRight Arrow

Hourly Observations for March 31, 2019

Temp ( °F °C ) Dew Point ( °F °C ) Humidity (%) Winds ( mph kmh ) Pressure ( in mb ) Visibility ( mi km ) Precip ( " mm )
12:52 am 00:52 Clear 32 0 18 -7.8 56 56 N 13 20 30.45 1031 10 16 0.00 0.00
1:52 am 01:52 Clear 31 -0.6 18 -7.8 59 59 N 10 17 30.46 1031 10 16 0.00 0.00
2:52 am 02:52 Clear 29 -1.7 19 -7.2 66 66 N 7 11 30.45 1031 10 16 0.00 0.00
3:52 am 03:52 Clear 27 -2.8 18 -7.8 69 69 NW 6 9 30.46 1031 10 16 0.00 0.00
4:52 am 04:52 Clear 27 -2.8 17 -8.3 66 66 WNW 6 9 30.46 1031 10 16 0.00 0.00
5:52 am 05:52 Clear 26 -3.3 16 -8.9 66 66 W 5 7 30.47 1032 10 16 0.00 0.00
6:52 am 06:52 Clear 25 -3.9 16 -8.9 69 69 W 5 7 30.48 1032 10 16 0.00 0.00
7:52 am 07:52 Sunny 27 -2.8 18 -7.8 69 69 Calm 30.49 1033 10 16 0.00 0.00
8:52 am 08:52 Sunny 31 -0.6 19 -7.2 61 61 Calm 30.49 1033 10 16 0.00 0.00
9:52 am 09:52 Sunny 33 0.6 17 -8.3 52 52 Calm 30.49 1033 10 16 0.00 0.00
10:52 am 10:52 Sunny 35 1.7 17 -8.3 48 48 Calm 30.48 1032 10 16 0.00 0.00
11:52 am 11:52 Sunny 39 3.9 15 -9.4 38 38 S 7 11 30.45 1031 10 16 0.00 0.00
12:52 pm 12:52 Sunny 42 5.6 16 -8.9 35 35 undefined N/A 30.42 1030 10 16 0.00 0.00
1:52 pm 13:52 Sunny 45 7.2 17 -8.3 33 33 SW 8 13 30.39 1029 10 16 0.00 0.00
2:52 pm 14:52 Mostly Sunny 46 7.8 18 -7.8 32 32 VRB 6 9 30.36 1028 10 16 0.00 0.00
3:52 pm 15:52 Sunny 50 10 20 -6.7 30 30 SW 12 19 30.33 1027 10 16 0.00 0.00
4:52 pm 16:52 Sunny 51 10.6 20 -6.7 29 29 SSW 13 20 30.29 1026 10 16 0.00 0.00
5:52 pm 17:52 Sunny 51 10.6 21 -6.1 31 31 SW 12 19 30.27 1025 10 16 0.00 0.00
6:52 pm 18:52 Mostly Sunny 51 10.6 21 -6.1 31 31 SW 15 24 30.25 1025 10 16 0.00 0.00
7:52 pm 19:52 Mostly Clear 50 10 23 -5 35 35 SSW 13 20 30.24 1024 10 16 0.00 0.00
8:52 pm 20:52 Clear 47 8.3 27 -2.8 46 46 S 13 20 30.24 1024 10 16 0.00 0.00
9:52 pm 21:52 Clear 45 7.2 27 -2.8 49 49 S 12 19 30.24 1024 10 16 0.00 0.00
10:52 pm 22:52 Clear 43 6.1 27 -2.8 53 53 S 13 20 30.23 1024 10 16 0.00 0.00
11:52 pm 23:52 Clear 42 5.6 27 -2.8 55 55 S 12 19 30.22 1023 10 16 0.00 0.00

Powered by AerisWeather